Torna al catalogo

COSMOS 1408 DEB

AttivoPO
NORAD 50058·DEBRIS·🇷🇺 Russia

Lanciato Sep 16, 1982 da Plesetsk Cosmodrome

Loading…

Prossimi Passaggi (prossime 24 ore)

TLE

AggiornatoSource: Space-Track

Epoca: Sep 13, 2026, 15:56 UTC

1 50058U 82092SW  26256.66411543  .00132618  54660-5  32115-3 0  9992
2 50058  82.6030 135.8286 0008988 124.5652 235.6473 15.96180244271370

Traccia COSMOS 1408 DEB in tempo reale con AllMySat

Download on the App Store